Wakefield, VA

4:19 PM EST on December 11, 2019 (GMT -0500)
Wakefield Municipal

Weather History for KAKQ - October, 2019

Change the Weather History Date:

Wednesday, October 9, 2019

  Actual Average (WUND) Record (WUND)
Temperature  
Mean Temperature 64 °F -  
Max Temperature 68 °F - - (-1)
Min Temperature 59 °F - - (-1)
Degree Days  
Heating Degree Days 2    
Growing Degree Days 14 (Base 50)    
Moisture  
Dew Point 54 °F    
Average Humidity 71    
Maximum Humidity 83    
Minimum Humidity 63    
Precipitation  
Precipitation 0.00 in - - ()
Sea Level Pressure  
Sea Level Pressure 30.16 in    
Wind  
Wind Speed 5 mph (North)    
Max Wind Speed 9 mph    
Max Gust Speed -    
Visibility 10 miles    
Events      
Averages and records for this station are not official NWS values.
T = Trace of Precipitation, MM = Missing Value Source: NWS Daily Summary

Daily Weather History Graph

Daily Weather History Graph

Search for Another Location

Airport or City:

Astronomy

Oct. 09, 2019 Rise Set
Actual Time 7:10 AM EDT 6:39 PM EDT
Civil Twilight 6:44 AM EDT 7:05 PM EDT
Nautical Twilight 6:13 AM EDT 7:35 PM EDT
Astronomical Twilight 5:43 AM EDT 8:06 PM EDT
Moon 5:03 PM EDT (10/9) 3:02 AM EDT (10/9)
Length of Visible Light 12h 21m
Length of Day
11h 29m
Waxing Gibbous, 85% of the Moon is Illuminated
Oct 9
Waxing Gibbous
Oct 13
Full
Oct 21
Last Quarter
Oct 27
New
Nov 4
First Quarter

Hourly Weather History & Observations

Time (EDT) Temp. Dew Point Humidity Pressure Visibility Wind Dir Wind Speed Gust Speed Precip Events Conditions
12:54 AM 64.0 °F 51.1 °F 63% 30.12 in 10.0 mi Variable 5.8 mph - N/A   Overcast
1:54 AM 64.0 °F 51.1 °F 63% 30.12 in 10.0 mi Variable 5.8 mph - N/A   Overcast
2:54 AM 63.0 °F 52.0 °F 67% 30.12 in 10.0 mi Variable 5.8 mph - N/A   Overcast
3:54 AM 61.0 °F 52.0 °F 72% 30.12 in 10.0 mi North 5.8 mph - N/A   Overcast
4:54 AM 61.0 °F 52.0 °F 72% 30.12 in 10.0 mi North 4.6 mph - N/A   Overcast
5:54 AM 61.0 °F 52.0 °F 72% 30.13 in 10.0 mi North 6.9 mph - N/A   Overcast
6:54 AM 59.0 °F 54.0 °F 83% 30.14 in 10.0 mi North 3.5 mph - 0.00 in   Overcast
7:54 AM 61.0 °F 54.0 °F 78% 30.15 in 10.0 mi North 5.8 mph - N/A   Overcast
8:54 AM 62.1 °F 54.0 °F 75% 30.17 in 10.0 mi Variable 5.8 mph - N/A   Overcast
9:54 AM 64.0 °F 54.0 °F 70% 30.18 in 10.0 mi Variable 3.5 mph - N/A   Overcast
10:54 AM 64.0 °F 55.0 °F 73% 30.19 in 10.0 mi North 9.2 mph - N/A   Overcast
11:54 AM 66.0 °F 55.0 °F 68% 30.18 in 10.0 mi Variable 6.9 mph - N/A   Overcast
12:54 PM 66.9 °F 55.0 °F 66% 30.18 in 10.0 mi Variable 5.8 mph - N/A   Overcast
1:08 PM 66.9 °F 55.0 °F 66% 30.18 in 10.0 mi North 8.1 mph - N/A   Overcast
1:54 PM 68.0 °F 55.0 °F 63% 30.16 in 10.0 mi North 5.8 mph - N/A   Overcast
2:54 PM 66.9 °F 55.0 °F 66% 30.16 in 10.0 mi Variable 4.6 mph - N/A   Overcast
3:54 PM 66.9 °F 55.0 °F 66% 30.15 in 10.0 mi Variable 3.5 mph - N/A   Overcast
4:54 PM 64.9 °F 55.0 °F 70% 30.15 in 10.0 mi NE 4.6 mph - N/A   Overcast
5:54 PM 64.0 °F 55.0 °F 73% 30.16 in 10.0 mi North 6.9 mph - N/A   Overcast
6:54 PM 63.0 °F 55.0 °F 75% 30.16 in 10.0 mi Variable 4.6 mph - N/A   Overcast
7:54 PM 63.0 °F 55.0 °F 75% 30.18 in 10.0 mi Variable 3.5 mph - N/A   Overcast
8:32 PM 63.0 °F 55.0 °F 75% 30.18 in 10.0 mi Calm Calm - N/A   Overcast
8:54 PM 63.0 °F 55.0 °F 75% 30.19 in 10.0 mi Calm Calm - N/A   Overcast
9:54 PM 62.1 °F 55.0 °F 78% 30.19 in 10.0 mi Calm Calm - N/A   Overcast
10:54 PM 63.0 °F 53.1 °F 70% 30.20 in 10.0 mi NNE 4.6 mph - N/A   Overcast
11:54 PM 62.1 °F 53.1 °F 72% 30.20 in 10.0 mi Variable 4.6 mph - N/A   Overcast